FENGYUN 1C DEB

Satellite information

Favourite Embed

Satellite Type and Status

DEBRISIN ORBIT

Key statistics

Satellite FENGYUN 1C DEB at a glance.

Uptime

9555

Days in orbit

Revolutions

≈ 14.6

Per day

Orbit

SSO

Sun Synchronous Orbit

Inclination

99.1

Latest

Satellite identification and parameters

Extended collection of information and parameters for FENGYUN 1C DEB.

Object identification

Identified? True

Debris? True

Object name: FENGYUN 1C DEB

International designator: 1999-025WN

Object number (NORAD): 30229

Object ID (CCSDS): 30229

Country: PEOPLES REPUBLIC OF CHINA (PRC)

Current information (Y/N): Y

RCS size: SMALL

Orbital parameters

Period: 98.797 minutes

Inclination: 99.0776 deg

SMA: 7079.304 km

Apoapsis: 730.12 km

Periapsis: 672.218 km

RAAN: 232.7449 deg

Eccentricy: 0.0040895

Argument of periapsis: 160.3514 deg

Mean anomaly: 329.6051 deg

Mean motion: 14.57528064 rev/day

Mean motion (dot): 0.0000455 rev/day2

B* drag term: 0.0010007 1/REarth

Two-line elements (TLE)

Creation date: July 6, 2025, 6:05 p.m.

Reference frame: TEME

Reference center: EARTH

Epoch: July 6, 2025, 2:51 p.m. UTC

TLE line 0: 0 FENGYUN 1C DEB

TLE line 1: 1 30229U 99025WN 25187.61936189 .00004550 00000-0 10007-2 0 9991

TLE line 2: 2 30229 99.0776 232.7449 0040895 160.3514 329.6051 14.57528064966068

Live tracking on map

Real-time ground track for satellite FENGYUN 1C DEB.

In-orbit conjunctions

A list of the most updated potential collisions computed for object FENGYUN 1C DEB.

Target Orbit TCA Probability of collision Miss distance Type
THOR BURNER 2A DEB SSO 2024-07-03 16:30:29 0.00015274 672.0 (m) DEBRIS
CZ-6A DEB SSO 2024-06-30 13:02:07 0.000151008 427.0 (m) DEBRIS

Associated space launch

Chinese polar orbiting meteorological satellite

FENGYUN 1C DEB was lifted into orbit during the mission ‘Long March 4B | Feng Yun 1C’, on board a Long March 4B space rocket.

The launch took place on May 10, 1999, 1:33 a.m. from Launch Complex 7.

For more information about the launch, click the button.

Launch to space Long March 4B | Feng Yun 1C
Long March 4B | Feng Yun 1C

Agency: N/A

Status: Launch Successful

Launch date: May 10, 1999, 1:33 a.m. UTC

Rocket: Long March 4B

Launch pad: Launch Complex 7

Location: Taiyuan Satellite Launch Center, People's Republic of China

...

Latest news about this satellite

There are no fresh news available about this satellite. Check back as we update our databases every day.


Newsletter sign-up

Weekly statistics, charts and insights to help you stay on top of the space industry.